Date Time, Air Temperature, X, N, R 
2017-09-07 00:00,65.3,0,0,0
2017-09-07 00:06,65.5,0,0,0
2017-09-07 00:12,65.5,0,0,0
2017-09-07 00:18,65.5,0,0,0
2017-09-07 00:24,65.7,0,0,0
2017-09-07 00:30,65.5,0,0,0
2017-09-07 00:36,65.7,0,0,0
2017-09-07 00:42,65.7,0,0,0
2017-09-07 00:48,65.5,0,0,0
2017-09-07 00:54,65.7,0,0,0
2017-09-07 01:00,65.7,0,0,0
2017-09-07 01:06,65.7,0,0,0
2017-09-07 01:12,65.3,0,0,0
2017-09-07 01:18,65.1,0,0,0
2017-09-07 01:24,65.1,0,0,0
2017-09-07 01:30,65.3,0,0,0
2017-09-07 01:36,65.3,0,0,0
2017-09-07 01:42,65.5,0,0,0
2017-09-07 01:48,65.3,0,0,0
2017-09-07 01:54,65.1,0,0,0
2017-09-07 02:00,65.3,0,0,0
2017-09-07 02:06,65.5,0,0,0
2017-09-07 02:12,65.3,0,0,0
2017-09-07 02:18,65.5,0,0,0
2017-09-07 02:24,65.5,0,0,0
2017-09-07 02:30,65.8,0,0,0
2017-09-07 02:36,65.7,0,0,0
2017-09-07 02:42,66.0,0,0,0
2017-09-07 02:48,66.2,0,0,0
2017-09-07 02:54,66.2,0,0,0
2017-09-07 03:00,66.2,0,0,0
2017-09-07 03:06,66.2,0,0,0
2017-09-07 03:12,66.2,0,0,0
2017-09-07 03:18,66.0,0,0,0
2017-09-07 03:24,65.8,0,0,0
2017-09-07 03:30,65.7,0,0,0
2017-09-07 03:36,65.5,0,0,0
2017-09-07 03:42,65.5,0,0,0
2017-09-07 03:48,65.5,0,0,0
2017-09-07 03:54,65.5,0,0,0
2017-09-07 04:00,65.5,0,0,0
2017-09-07 04:06,65.1,0,0,0
2017-09-07 04:12,65.3,0,0,0
2017-09-07 04:18,65.1,0,0,0
2017-09-07 04:24,65.5,0,0,0
2017-09-07 04:30,65.3,0,0,0
2017-09-07 04:36,65.5,0,0,0
2017-09-07 04:42,65.5,0,0,0
2017-09-07 04:48,65.7,0,0,0
2017-09-07 04:54,65.7,0,0,0
2017-09-07 05:00,65.8,0,0,0
2017-09-07 05:06,65.7,0,0,0
2017-09-07 05:12,65.8,0,0,0
2017-09-07 05:18,66.0,0,0,0
2017-09-07 05:24,66.0,0,0,0
2017-09-07 05:30,66.2,0,0,0
2017-09-07 05:36,65.8,0,0,0
2017-09-07 05:42,65.7,0,0,0
2017-09-07 05:48,65.7,0,0,0
2017-09-07 05:54,65.8,0,0,0
2017-09-07 06:00,65.5,0,0,0
2017-09-07 06:06,65.5,0,0,0
2017-09-07 06:12,65.5,0,0,0
2017-09-07 06:18,65.7,0,0,0
2017-09-07 06:24,65.5,0,0,0
2017-09-07 06:30,65.5,0,0,0
2017-09-07 06:36,65.3,0,0,0
2017-09-07 06:42,65.1,0,0,0
2017-09-07 06:48,65.1,0,0,0
2017-09-07 06:54,65.1,0,0,0
2017-09-07 07:00,65.3,0,0,0
2017-09-07 07:06,64.8,0,0,0
2017-09-07 07:12,64.8,0,0,0
2017-09-07 07:18,64.9,0,0,0
2017-09-07 07:24,64.8,0,0,0
2017-09-07 07:30,65.1,0,0,0
2017-09-07 07:36,64.9,0,0,0
2017-09-07 07:42,64.8,0,0,0
2017-09-07 07:48,64.6,0,0,0
2017-09-07 07:54,64.6,0,0,0
2017-09-07 08:00,64.4,0,0,0
2017-09-07 08:06,64.6,0,0,0
2017-09-07 08:12,64.4,0,0,0
2017-09-07 08:18,64.4,0,0,0
2017-09-07 08:24,64.4,0,0,0
2017-09-07 08:30,64.2,0,0,0
2017-09-07 08:36,64.2,0,0,0
2017-09-07 08:42,64.2,0,0,0
2017-09-07 08:48,64.2,0,0,0
2017-09-07 08:54,63.9,0,0,0
2017-09-07 09:00,63.7,0,0,0
2017-09-07 09:06,63.9,0,0,0
2017-09-07 09:12,63.7,0,0,0
2017-09-07 09:18,63.1,0,0,0
2017-09-07 09:24,63.3,0,0,0
2017-09-07 09:30,62.8,0,0,0
2017-09-07 09:36,63.0,0,0,0
2017-09-07 09:42,63.0,0,0,0
2017-09-07 09:48,62.8,0,0,0
2017-09-07 09:54,62.8,0,0,0
2017-09-07 10:00,63.0,0,0,0
2017-09-07 10:06,63.0,0,0,0
2017-09-07 10:12,63.0,0,0,0
2017-09-07 10:18,62.6,0,0,0
2017-09-07 10:24,62.8,0,0,0
2017-09-07 10:30,62.4,0,0,0
2017-09-07 10:36,62.4,0,0,0
2017-09-07 10:42,62.6,0,0,0
2017-09-07 10:48,62.1,0,0,0
2017-09-07 10:54,61.9,0,0,0
2017-09-07 11:00,61.7,0,0,0
2017-09-07 11:06,61.9,0,0,0
2017-09-07 11:12,61.9,0,0,0
2017-09-07 11:18,61.5,0,0,0
2017-09-07 11:24,61.7,0,0,0
2017-09-07 11:30,61.5,0,0,0
2017-09-07 11:36,61.5,0,0,0
2017-09-07 11:42,61.5,0,0,0
2017-09-07 11:48,61.3,0,0,0
2017-09-07 11:54,61.2,0,0,0
2017-09-07 12:00,61.3,0,0,0
2017-09-07 12:06,61.7,0,0,0
2017-09-07 12:12,61.5,0,0,0
2017-09-07 12:18,61.5,0,0,0
2017-09-07 12:24,61.3,0,0,0
2017-09-07 12:30,61.3,0,0,0
2017-09-07 12:36,61.5,0,0,0
2017-09-07 12:42,61.2,0,0,0
2017-09-07 12:48,61.2,0,0,0
2017-09-07 12:54,61.3,0,0,0
2017-09-07 13:00,61.2,0,0,0
2017-09-07 13:06,61.2,0,0,0
2017-09-07 13:12,61.2,0,0,0
2017-09-07 13:18,61.9,0,0,0
2017-09-07 13:24,62.1,0,0,0
2017-09-07 13:30,62.1,0,0,0
2017-09-07 13:36,62.2,0,0,0
2017-09-07 13:42,62.4,0,0,0
2017-09-07 13:48,62.8,0,0,0
2017-09-07 13:54,63.0,0,0,0
2017-09-07 14:00,63.3,0,0,0
2017-09-07 14:06,63.1,0,0,0
2017-09-07 14:12,63.7,0,0,0
2017-09-07 14:18,63.5,0,0,0
2017-09-07 14:24,63.9,0,0,0
2017-09-07 14:30,64.2,0,0,0
2017-09-07 14:36,64.2,0,0,0
2017-09-07 14:42,64.6,0,0,0
2017-09-07 14:48,64.8,0,0,0
2017-09-07 14:54,65.1,0,0,0
2017-09-07 15:00,65.7,0,0,0
2017-09-07 15:06,65.7,0,0,0
2017-09-07 15:12,66.2,0,0,0
2017-09-07 15:18,66.6,0,0,0
2017-09-07 15:24,66.9,0,0,0
2017-09-07 15:30,66.9,0,0,0
2017-09-07 15:36,67.5,0,0,0
2017-09-07 15:42,67.6,0,0,0
2017-09-07 15:48,67.8,0,0,0
2017-09-07 15:54,68.2,0,0,0
2017-09-07 16:00,68.2,0,0,0
2017-09-07 16:06,68.4,0,0,0
2017-09-07 16:12,68.4,0,0,0
2017-09-07 16:18,69.1,0,0,0
2017-09-07 16:24,69.3,0,0,0
2017-09-07 16:30,69.1,0,0,0
2017-09-07 16:36,69.6,0,0,0
2017-09-07 16:42,69.3,0,0,0
2017-09-07 16:48,69.8,0,0,0
2017-09-07 16:54,70.0,0,0,0
2017-09-07 17:00,69.6,0,0,0
2017-09-07 17:06,70.0,0,0,0
2017-09-07 17:12,70.2,0,0,0
2017-09-07 17:18,70.5,0,0,0
2017-09-07 17:24,70.5,0,0,0
2017-09-07 17:30,70.5,0,0,0
2017-09-07 17:36,71.2,0,0,0
2017-09-07 17:42,71.1,0,0,0
2017-09-07 17:48,71.4,0,0,0
2017-09-07 17:54,71.6,0,0,0
2017-09-07 18:00,71.6,0,0,0
2017-09-07 18:06,71.8,0,0,0
2017-09-07 18:12,72.0,0,0,0
2017-09-07 18:18,71.8,0,0,0
2017-09-07 18:24,72.1,0,0,0
2017-09-07 18:30,72.1,0,0,0
2017-09-07 18:36,72.1,0,0,0
2017-09-07 18:42,72.3,0,0,0
2017-09-07 18:48,72.5,0,0,0
2017-09-07 18:54,72.5,0,0,0
2017-09-07 19:00,72.3,0,0,0
2017-09-07 19:06,72.7,0,0,0
2017-09-07 19:12,72.7,0,0,0
2017-09-07 19:18,72.5,0,0,0
2017-09-07 19:24,72.9,0,0,0
2017-09-07 19:30,72.9,0,0,0
2017-09-07 19:36,73.2,0,0,0
2017-09-07 19:42,73.0,0,0,0
2017-09-07 19:48,72.9,0,0,0
2017-09-07 19:54,72.9,0,0,0
2017-09-07 20:00,73.0,0,0,0
2017-09-07 20:06,73.0,0,0,0
2017-09-07 20:12,73.2,0,0,0
2017-09-07 20:18,73.4,0,0,0
2017-09-07 20:24,73.4,0,0,0
2017-09-07 20:30,73.2,0,0,0
2017-09-07 20:36,73.0,0,0,0
2017-09-07 20:42,73.2,0,0,0
2017-09-07 20:48,73.2,0,0,0
2017-09-07 20:54,73.4,0,0,0
2017-09-07 21:00,73.4,0,0,0
2017-09-07 21:06,73.4,0,0,0
2017-09-07 21:12,73.4,0,0,0
2017-09-07 21:18,73.4,0,0,0
2017-09-07 21:24,73.2,0,0,0
2017-09-07 21:30,73.2,0,0,0
2017-09-07 21:36,73.2,0,0,0
2017-09-07 21:42,73.4,0,0,0
2017-09-07 21:48,73.2,0,0,0
2017-09-07 21:54,73.0,0,0,0
2017-09-07 22:00,73.0,0,0,0
2017-09-07 22:06,72.7,0,0,0
2017-09-07 22:12,72.9,0,0,0
2017-09-07 22:18,72.7,0,0,0
2017-09-07 22:24,72.9,0,0,0
2017-09-07 22:30,72.7,0,0,0
2017-09-07 22:36,72.9,0,0,0
2017-09-07 22:42,72.9,0,0,0
2017-09-07 22:48,72.5,0,0,0
2017-09-07 22:54,72.0,0,0,0
2017-09-07 23:00,71.6,0,0,0
2017-09-07 23:06,71.4,0,0,0
2017-09-07 23:12,70.9,0,0,0
2017-09-07 23:18,70.5,0,0,0
2017-09-07 23:24,70.0,0,0,0
2017-09-07 23:30,69.6,0,0,0
2017-09-07 23:36,69.4,0,0,0
2017-09-07 23:42,69.3,0,0,0
2017-09-07 23:48,69.4,0,0,0
2017-09-07 23:54,69.4,0,0,0
2017-09-08 00:00,69.3,0,0,0
2017-09-08 00:06,69.6,0,0,0
2017-09-08 00:12,69.1,0,0,0
2017-09-08 00:18,68.7,0,0,0
2017-09-08 00:24,68.7,0,0,0
2017-09-08 00:30,68.4,0,0,0
2017-09-08 00:36,68.7,0,0,0
2017-09-08 00:42,69.3,0,0,0
2017-09-08 00:48,68.7,0,0,0
2017-09-08 00:54,69.1,0,0,0
2017-09-08 01:00,68.7,0,0,0
2017-09-08 01:06,68.5,0,0,0
2017-09-08 01:12,68.7,0,0,0
2017-09-08 01:18,68.2,0,0,0
2017-09-08 01:24,67.5,0,0,0
2017-09-08 01:30,67.1,0,0,0
2017-09-08 01:36,67.1,0,0,0
2017-09-08 01:42,67.5,0,0,0
2017-09-08 01:48,67.3,0,0,0
2017-09-08 01:54,67.5,0,0,0
2017-09-08 02:00,67.6,0,0,0
2017-09-08 02:06,67.6,0,0,0
2017-09-08 02:12,68.2,0,0,0
2017-09-08 02:18,67.6,0,0,0
2017-09-08 02:24,67.5,0,0,0
2017-09-08 02:30,66.7,0,0,0
2017-09-08 02:36,68.2,0,0,0
2017-09-08 02:42,68.4,0,0,0
2017-09-08 02:48,67.6,0,0,0
2017-09-08 02:54,65.8,0,0,0
2017-09-08 03:00,65.8,0,0,0
2017-09-08 03:06,65.3,0,0,0
2017-09-08 03:12,63.9,0,0,0
2017-09-08 03:18,64.0,0,0,0
2017-09-08 03:24,64.2,0,0,0
2017-09-08 03:30,64.0,0,0,0
2017-09-08 03:36,63.9,0,0,0
2017-09-08 03:42,63.7,0,0,0
2017-09-08 03:48,63.5,0,0,0
2017-09-08 03:54,63.7,0,0,0
2017-09-08 04:00,63.9,0,0,0
2017-09-08 04:06,64.4,0,0,0
2017-09-08 04:12,64.8,0,0,0
2017-09-08 04:18,64.9,0,0,0
2017-09-08 04:24,64.8,0,0,0
2017-09-08 04:30,65.1,0,0,0
2017-09-08 04:36,64.9,0,0,0
2017-09-08 04:42,65.1,0,0,0
2017-09-08 04:48,65.5,0,0,0
2017-09-08 04:54,66.0,0,0,0
2017-09-08 05:00,66.4,0,0,0
2017-09-08 05:06,66.4,0,0,0
2017-09-08 05:12,66.6,0,0,0
2017-09-08 05:18,66.6,0,0,0
2017-09-08 05:24,66.2,0,0,0
2017-09-08 05:30,65.7,0,0,0
2017-09-08 05:36,65.5,0,0,0
2017-09-08 05:42,65.5,0,0,0
2017-09-08 05:48,65.5,0,0,0
2017-09-08 05:54,65.5,0,0,0
2017-09-08 06:00,65.7,0,0,0
2017-09-08 06:06,64.9,0,0,0
2017-09-08 06:12,64.4,0,0,0
2017-09-08 06:18,64.4,0,0,0
2017-09-08 06:24,64.4,0,0,0
2017-09-08 06:30,64.0,0,0,0
2017-09-08 06:36,64.2,0,0,0
2017-09-08 06:42,64.0,0,0,0
2017-09-08 06:48,64.2,0,0,0
2017-09-08 06:54,64.2,0,0,0
2017-09-08 07:00,64.0,0,0,0
2017-09-08 07:06,63.9,0,0,0
2017-09-08 07:12,64.2,0,0,0
2017-09-08 07:18,64.0,0,0,0
2017-09-08 07:24,64.0,0,0,0
2017-09-08 07:30,63.9,0,0,0
2017-09-08 07:36,63.1,0,0,0
2017-09-08 07:42,63.0,0,0,0
2017-09-08 07:48,63.0,0,0,0
2017-09-08 07:54,63.3,0,0,0
2017-09-08 08:00,63.3,0,0,0
2017-09-08 08:06,63.3,0,0,0
2017-09-08 08:12,63.1,0,0,0
2017-09-08 08:18,63.3,0,0,0
2017-09-08 08:24,63.9,0,0,0
2017-09-08 08:30,63.3,0,0,0
2017-09-08 08:36,63.3,0,0,0
2017-09-08 08:42,62.4,0,0,0
2017-09-08 08:48,62.1,0,0,0
2017-09-08 08:54,61.7,0,0,0
2017-09-08 09:00,61.7,0,0,0
2017-09-08 09:06,61.9,0,0,0
2017-09-08 09:12,62.1,0,0,0
2017-09-08 09:18,62.4,0,0,0
2017-09-08 09:24,62.2,0,0,0
2017-09-08 09:30,62.2,0,0,0
2017-09-08 09:36,62.1,0,0,0
2017-09-08 09:42,62.1,0,0,0
2017-09-08 09:48,61.9,0,0,0
2017-09-08 09:54,61.9,0,0,0
2017-09-08 10:00,61.5,0,0,0
2017-09-08 10:06,61.3,0,0,0
2017-09-08 10:12,61.7,0,0,0
2017-09-08 10:18,61.5,0,0,0
2017-09-08 10:24,61.5,0,0,0
2017-09-08 10:30,61.5,0,0,0
2017-09-08 10:36,61.5,0,0,0
2017-09-08 10:42,61.0,0,0,0
2017-09-08 10:48,61.2,0,0,0
2017-09-08 10:54,61.2,0,0,0
2017-09-08 11:00,61.0,0,0,0
2017-09-08 11:06,60.6,0,0,0
2017-09-08 11:12,60.6,0,0,0
2017-09-08 11:18,60.8,0,0,0
2017-09-08 11:24,61.0,0,0,0
2017-09-08 11:30,60.8,0,0,0
2017-09-08 11:36,60.8,0,0,0
2017-09-08 11:42,61.0,0,0,0
2017-09-08 11:48,61.0,0,0,0
2017-09-08 11:54,61.3,0,0,0
2017-09-08 12:00,61.9,0,0,0
2017-09-08 12:06,61.9,0,0,0
2017-09-08 12:12,62.2,0,0,0
2017-09-08 12:18,62.2,0,0,0
2017-09-08 12:24,62.8,0,0,0
2017-09-08 12:30,63.1,0,0,0
2017-09-08 12:36,63.1,0,0,0
2017-09-08 12:42,63.3,0,0,0
2017-09-08 12:48,63.9,0,0,0
2017-09-08 12:54,63.9,0,0,0
2017-09-08 13:00,64.0,0,0,0
2017-09-08 13:06,64.4,0,0,0
2017-09-08 13:12,64.8,0,0,0
2017-09-08 13:18,64.8,0,0,0
2017-09-08 13:24,65.1,0,0,0
2017-09-08 13:30,65.3,0,0,0
2017-09-08 13:36,65.5,0,0,0
2017-09-08 13:42,65.5,0,0,0
2017-09-08 13:48,65.7,0,0,0
2017-09-08 13:54,65.8,0,0,0
2017-09-08 14:00,66.2,0,0,0
2017-09-08 14:06,66.2,0,0,0
2017-09-08 14:12,66.4,0,0,0
2017-09-08 14:18,66.4,0,0,0
2017-09-08 14:24,66.7,0,0,0
2017-09-08 14:30,66.6,0,0,0
2017-09-08 14:36,66.7,0,0,0
2017-09-08 14:42,67.3,0,0,0
2017-09-08 14:48,67.3,0,0,0
2017-09-08 14:54,67.6,0,0,0
2017-09-08 15:00,67.8,0,0,0
2017-09-08 15:06,67.8,0,0,0
2017-09-08 15:12,68.2,0,0,0
2017-09-08 15:18,68.4,0,0,0
2017-09-08 15:24,68.5,0,0,0
2017-09-08 15:30,68.5,0,0,0
2017-09-08 15:36,68.9,0,0,0
2017-09-08 15:42,69.1,0,0,0
2017-09-08 15:48,69.3,0,0,0
2017-09-08 15:54,69.6,0,0,0
2017-09-08 16:00,70.3,0,0,0
2017-09-08 16:06,70.9,0,0,0
2017-09-08 16:12,70.5,0,0,0
2017-09-08 16:18,70.9,0,0,0
2017-09-08 16:24,72.0,0,0,0
2017-09-08 16:30,73.0,0,0,0
2017-09-08 16:36,71.4,0,0,0
2017-09-08 16:42,72.5,0,0,0
2017-09-08 16:48,73.2,0,0,0
2017-09-08 16:54,71.8,0,0,0
2017-09-08 17:00,71.8,0,0,0
2017-09-08 17:06,72.3,0,0,0
2017-09-08 17:12,72.1,0,0,0
2017-09-08 17:18,72.3,0,0,0
2017-09-08 17:24,71.8,0,0,0
2017-09-08 17:30,72.7,0,0,0
2017-09-08 17:36,72.9,0,0,0
2017-09-08 17:42,72.1,0,0,0
2017-09-08 17:48,72.3,0,0,0
2017-09-08 17:54,71.4,0,0,0
2017-09-08 18:00,71.4,0,0,0
2017-09-08 18:06,72.0,0,0,0
2017-09-08 18:12,71.8,0,0,0
2017-09-08 18:18,71.4,0,0,0
2017-09-08 18:24,71.6,0,0,0
2017-09-08 18:30,71.6,0,0,0
2017-09-08 18:36,71.8,0,0,0
2017-09-08 18:42,71.8,0,0,0
2017-09-08 18:48,72.1,0,0,0
2017-09-08 18:54,72.3,0,0,0
2017-09-08 19:00,72.0,0,0,0
2017-09-08 19:06,71.8,0,0,0
2017-09-08 19:12,71.8,0,0,0
2017-09-08 19:18,72.0,0,0,0
2017-09-08 19:24,72.3,0,0,0
2017-09-08 19:30,71.8,0,0,0
2017-09-08 19:36,72.0,0,0,0
2017-09-08 19:42,72.1,0,0,0
2017-09-08 19:48,72.1,0,0,0
2017-09-08 19:54,71.8,0,0,0
2017-09-08 20:00,71.6,0,0,0
2017-09-08 20:06,71.4,0,0,0
2017-09-08 20:12,72.0,0,0,0
2017-09-08 20:18,72.0,0,0,0
2017-09-08 20:24,72.1,0,0,0
2017-09-08 20:30,72.0,0,0,0
2017-09-08 20:36,72.1,0,0,0
2017-09-08 20:42,72.5,0,0,0
2017-09-08 20:48,72.5,0,0,0
2017-09-08 20:54,72.5,0,0,0
2017-09-08 21:00,72.7,0,0,0
2017-09-08 21:06,72.9,0,0,0
2017-09-08 21:12,73.4,0,0,0
2017-09-08 21:18,73.8,0,0,0
2017-09-08 21:24,73.2,0,0,0
2017-09-08 21:30,73.2,0,0,0
2017-09-08 21:36,73.6,0,0,0
2017-09-08 21:42,73.8,0,0,0
2017-09-08 21:48,72.9,0,0,0
2017-09-08 21:54,73.2,0,0,0
2017-09-08 22:00,72.7,0,0,0
2017-09-08 22:06,72.7,0,0,0
2017-09-08 22:12,72.9,0,0,0
2017-09-08 22:18,72.5,0,0,0
2017-09-08 22:24,72.5,0,0,0
2017-09-08 22:30,72.7,0,0,0
2017-09-08 22:36,72.3,0,0,0
2017-09-08 22:42,72.3,0,0,0
2017-09-08 22:48,72.3,0,0,0
2017-09-08 22:54,72.3,0,0,0
2017-09-08 23:00,72.5,0,0,0
2017-09-08 23:06,72.3,0,0,0
2017-09-08 23:12,72.3,0,0,0
2017-09-08 23:18,72.1,0,0,0
2017-09-08 23:24,71.2,0,0,0
2017-09-08 23:30,70.7,0,0,0
2017-09-08 23:36,70.7,0,0,0
2017-09-08 23:42,70.3,0,0,0
2017-09-08 23:48,70.5,0,0,0
2017-09-08 23:54,70.5,0,0,0
